TimeMST,TemperatureF,Dew PointF,Humidity,Sea Level PressureIn,VisibilityMPH,Wind Direction,Wind SpeedMPH,Gust SpeedMPH,PrecipitationIn,Events,Conditions,WindDirDegrees,DateUTC
12:53 AM,23.0,12.0,63,30.08,10.0,Variable,4.6,-,N/A,,Clear,0,2013-01-09 07:53:00
1:53 AM,23.0,12.0,63,30.09,10.0,SW,8.1,-,N/A,,Clear,230,2013-01-09 08:53:00
2:53 AM,36.0,15.1,43,30.05,10.0,SSW,8.1,-,N/A,,Clear,210,2013-01-09 09:53:00
3:53 AM,37.0,16.0,42,30.04,10.0,Variable,4.6,-,N/A,,Clear,0,2013-01-09 10:53:00
4:53 AM,35.1,15.1,44,30.07,10.0,Calm,Calm,-,N/A,,Clear,0,2013-01-09 11:53:00
5:53 AM,36.0,16.0,44,30.05,10.0,SSW,4.6,-,N/A,,Clear,200,2013-01-09 12:53:00
6:53 AM,32.0,16.0,52,30.08,10.0,WSW,11.5,-,N/A,,Clear,240,2013-01-09 13:53:00
7:53 AM,37.0,16.0,42,30.07,10.0,Variable,3.5,-,N/A,,Clear,0,2013-01-09 14:53:00
8:53 AM,42.1,16.0,35,30.05,10.0,SSW,8.1,-,N/A,,Clear,210,2013-01-09 15:53:00
9:53 AM,44.1,19.0,37,30.05,10.0,NNE,5.8,-,N/A,,Clear,20,2013-01-09 16:53:00
10:53 AM,42.1,24.1,49,30.04,10.0,ESE,6.9,-,N/A,,Clear,120,2013-01-09 17:53:00
11:53 AM,45.0,27.0,49,30.01,10.0,South,6.9,-,N/A,,Clear,180,2013-01-09 18:53:00
12:53 PM,46.0,28.0,50,29.98,10.0,SE,6.9,-,N/A,,Clear,140,2013-01-09 19:53:00
1:53 PM,48.0,28.9,48,29.94,10.0,ESE,8.1,-,N/A,,Clear,120,2013-01-09 20:53:00
2:53 PM,52.0,27.0,38,29.88,10.0,South,8.1,-,N/A,,Clear,170,2013-01-09 21:53:00
3:53 PM,48.9,19.9,32,29.86,10.0,Calm,Calm,-,N/A,,Clear,0,2013-01-09 22:53:00
4:53 PM,50.0,12.0,22,29.82,10.0,SSW,27.6,35.7,N/A,,Clear,200,2013-01-09 23:53:00
5:53 PM,46.0,15.1,29,29.84,10.0,SSE,20.7,-,N/A,,Clear,160,2013-01-10 00:53:00
6:53 PM,43.0,18.0,37,29.84,10.0,South,15.0,-,N/A,,Clear,170,2013-01-10 01:53:00
7:53 PM,41.0,18.0,40,29.78,10.0,SE,8.1,-,N/A,,Clear,140,2013-01-10 02:53:00
8:53 PM,48.9,10.9,22,29.73,10.0,SSE,15.0,24.2,N/A,,Clear,160,2013-01-10 03:53:00
9:53 PM,53.1,6.1,15,29.71,10.0,South,21.9,33.4,N/A,,Clear,190,2013-01-10 04:53:00
10:44 PM,39.2,17.6,42,29.75,10.0,ESE,12.7,24.2,N/A,,Clear,120,2013-01-10 05:44:00
10:53 PM,39.9,18.0,41,29.75,10.0,SE,12.7,20.7,N/A,,Clear,140,2013-01-10 05:53:00
11:53 PM,39.0,18.0,43,29.73,10.0,South,5.8,-,N/A,,Clear,170,2013-01-10 06:53:00